カタログに戻る

STARLINK-34080

運用中通信VLEO
NORAD 64116·PAYLOAD·🇺🇸 United States

打ち上げ May 23, 2025 から Vandenberg Space Force Base

Loading…

次のパス (今後24時間)

TLE

最新Source: CelesTrak SupGP

元期: Sep 14, 2026, 21:33 UTC

1 64116C 25110W   26257.89840278  .00033768  00000+0  10851-2 0  2575
2 64116  53.1579 226.2080 0001607  91.7838 321.0250 15.31706702    16

AllMySatでSTARLINK-34080をリアルタイム追跡

Download on the App Store